Погода в Рудне

Россия / Калужская область     54°39′30″N   35°52′59″E
темп.,
°C
ветер,
м/с
пор.,
м/с
влажн.,
%
обл.,
%
осадки,
мм/ч
давл.,
гПа
погр.,
м
17 апреля, сб
сб1700:00+10в4893100 2.9 1018262
03:00+9всв269593 3.3 1019121
06:00+9в479598 0.3 1019357
09:00+10всв3689100 0.3 1020618
12:00+12всв5881100 0.0 1019791
15:00+13св61377100 0.2 10181367
18:00+14в61274100 2.3 1017900
21:00+10юв2696100 8.8 1018361
18 апреля, вс
вс1800:00+10всв31092100 3.2 1017792
03:00+7ююз2295100 5.5 1018291
06:00+6зюз1294100 3.2 1018319
09:00+5всв3492100 9.4 1019621
12:00+6в2389100 0.3 1020612
15:00+7св3487100 0.4 1021487
18:00+6всв579196 0.1 1022468
21:00+5св4894100 0.5 1022360
19 апреля, пн
пн1900:00+5всв4995100 0.1 1022339
03:00+5всв4994100 0.1 1022374
06:00+6всв499499 0.0 1022501
09:00+7в5888100 0.0 1022580
12:00+7всв6888100 0.1 1022835
15:00+6всв51090100 0.1 1023858
18:00+5всв61190100 0.0 1023750
21:00+5в51195100 0.1 1023883
20 апреля, вт
вт2000:00+5в61294100 0.2 1021866
03:00+3всв61296100 0.6 1021633
06:00+3всв61296100 0.1 1019633
09:00+2всв61496100 1.0 1018695
12:00+4всв71596100 1.3 1015852
15:00+5в71592100 2.3 1012906
18:00+6в81892100 3.7 10071169
21:00+6в102191100 11.5 10021348
21 апреля, ср
ср2100:00+7вюв91891100 2.8 999912
03:00+9вюв81491100 6.7 996871
06:00+8юв81387100 2.9 9951154
09:00+6ююв81092100 3.8 995741
12:00+5ююз4895100 0.1 998479
15:00+3юз71496100 0.2 1003829
18:00+5юз71390100 0.3 10071244
21:00+5юз71289100 0.4 10111023